Change the Weather History Date:

Friday, September 13, 2013

  Actual Average Record
Temperature  
Mean Temperature 67 °F -  
Max Temperature 77 °F 78 °F 94 °F (1952)
Min Temperature 57 °F 52 °F 39 °F (1958)
Cooling Degree Days 2    
Growing Degree Days 17 (Base 50)    
Moisture  
Dew Point 58 °F    
Average Humidity 74    
Maximum Humidity 100    
Minimum Humidity 48    
Precipitation  
Precipitation 0.04 in - - ()
Sea Level Pressure  
Sea Level Pressure 29.72 in    
Wind  
Wind Speed 3 mph (NNW)    
Max Wind Speed 15 mph    
Max Gust Speed 22 mph    
Visibility 9 miles    
Events Rain    
Averages and records for this station are not official NWS values.
T = Trace of Precipitation, MM = Missing Value Source: NWS Daily Summary

Daily Weather History Graph

Daily Weather History Graph

Search for Another Location

Airport or City:

Trip Planner

Search our weather history database for the weather conditions in past years. The results will help you decide how hot, cold, wet, or windy it might be!

Date:

Astronomy

Sep. 13, 2013 Rise Set
Actual Time 6:37 AM EDT 7:10 PM EDT
Civil Twilight 6:10 AM EDT 7:38 PM EDT
Nautical Twilight 5:37 AM EDT 8:10 PM EDT
Astronomical Twilight 5:04 AM EDT 8:43 PM EDT
Moon 2:59 PM EDT (9/13) 12:03 AM EDT (9/13)
Length of Visible Light 13h 27m
Length of Day
12h 32m
First Quarter, 61% of the Moon is Illuminated
Sep 13
First Quarter
Sep 19
Full
Sep 26
Last Quarter
Oct 4
New
Oct 11
First Quarter

Hourly Weather History & Observations

Time (EDT) Temp. Dew Point Humidity Pressure Visibility Wind Dir Wind Speed Gust Speed Precip Events Conditions
12:53 AM 68.0 °F 66.0 °F 93% 29.69 in 4.0 mi Calm Calm - N/A   Overcast
1:53 AM 68.0 °F 66.9 °F 96% 29.67 in 5.0 mi NNW 3.5 mph - 0.00 in Rain Light Rain
2:53 AM 66.9 °F 66.0 °F 97% 29.65 in 6.0 mi Calm Calm - 0.01 in Rain Light Rain
3:53 AM 66.9 °F 66.0 °F 97% 29.65 in 10.0 mi Calm Calm - 0.02 in   Overcast
4:53 AM 66.9 °F 64.9 °F 93% 29.64 in 10.0 mi Calm Calm - 0.01 in   Mostly Cloudy
5:53 AM 64.9 °F 64.0 °F 97% 29.65 in 2.5 mi Calm Calm - N/A   Scattered Clouds
6:18 AM 64.4 °F 64.4 °F 100% 29.67 in 4.0 mi Calm Calm - N/A   Partly Cloudy
6:53 AM 64.0 °F 62.1 °F 93% 29.67 in 10.0 mi Calm Calm - N/A   Partly Cloudy
7:53 AM 64.9 °F 62.1 °F 90% 29.68 in 10.0 mi WNW 3.5 mph - N/A   Scattered Clouds
8:53 AM 69.1 °F 61.0 °F 75% 29.68 in 10.0 mi NNW 4.6 mph - N/A   Clear
9:53 AM 69.1 °F 57.9 °F 68% 29.70 in 10.0 mi NNW 6.9 mph - N/A   Clear
10:53 AM 66.9 °F 60.1 °F 79% 29.70 in 10.0 mi Calm Calm - N/A   Clear
11:53 AM 69.1 °F 60.1 °F 73% 29.71 in 10.0 mi Variable 3.5 mph - N/A   Scattered Clouds
12:53 PM 73.9 °F 57.9 °F 57% 29.69 in 10.0 mi NNW 10.4 mph - N/A   Clear
1:53 PM 75.9 °F 55.9 °F 50% 29.68 in 10.0 mi NW 9.2 mph 17.3 mph N/A   Clear
2:53 PM 73.0 °F 55.9 °F 55% 29.68 in 10.0 mi Variable 6.9 mph - N/A   Scattered Clouds
3:53 PM 73.9 °F 54.0 °F 50% 29.69 in 10.0 mi NW 15.0 mph 21.9 mph N/A   Clear
4:53 PM 73.0 °F 52.0 °F 48% 29.72 in 10.0 mi NNW 12.7 mph 19.6 mph N/A   Clear
5:53 PM 71.1 °F 52.0 °F 51% 29.74 in 10.0 mi NNW 9.2 mph 19.6 mph N/A   Clear
6:53 PM 66.9 °F 52.0 °F 59% 29.75 in 10.0 mi Variable 4.6 mph - N/A   Clear
7:53 PM 64.0 °F 53.1 °F 67% 29.80 in 10.0 mi NNW 3.5 mph - N/A   Clear
8:53 PM 63.0 °F 51.1 °F 65% 29.84 in 10.0 mi NNW 6.9 mph - N/A   Clear
9:53 PM 60.1 °F 50.0 °F 69% 29.85 in 10.0 mi NNW 4.6 mph - N/A   Clear
10:53 PM 59.0 °F 48.9 °F 69% 29.87 in 10.0 mi NW 9.2 mph - N/A   Clear
11:53 PM 57.9 °F 46.9 °F 67% 29.87 in 10.0 mi NNW 4.6 mph - N/A   Clear